Regional Weather Roundup
Issued by NWS

Home | Current Version | Previous Version | Graphics & Text | Print | Product List | Glossary On
Versions: 1 2 3 4 5 6 7 8 9 10 11 12 13 14 15 16 17 18 19 20 21 22 23 24 25 26 27 28 29 30 31 32 33 34 35 36 37 38 39 40 41 42 43 44 45 46 47 48 49 50
000
ASUS43 KLOT 190006
RWRIL

ILLINOIS REGIONAL WEATHER ROUNDUP
NATIONAL WEATHER SERVICE CHICAGO/ROMEOVILLE IL
700 PM CDT THU SEP 18 2014

NOTE: "FAIR" INDICATES FEW OR NO CLOUDS BELOW 12,000 FEET WITH NO
SIGNIFICANT WEATHER AND/OR OBSTRUCTIONS TO VISIBILITY.

* THESE STATIONS ARE NOT UNDER NWS QUALITY CONTROL. THEY ALSO MAY NOT
  REPORT WEATHER SUCH AS PRECIPITATION OR FOG.

ILZ001-002-007-009-015-016-024-190100-
NORTHWEST ILLINOIS

CITY           SKY/WX    TMP DP  RH WIND       PRES   REMARKS
MOLINE         CLEAR     64  53  67 E7        30.06R
6HR MIN TEMP:  64; 6HR MAX TEMP:  75;

STERLING*      CLEAR     63  54  72 CALM      30.08S
SAVANNA*       CLEAR     65  52  62 E5        30.08S
$$

ILZ003-004-008-010-011-017-018-190100-
NORTH CENTRAL ILLINOIS

CITY           SKY/WX    TMP DP  RH WIND       PRES   REMARKS
ROCKFORD       PTCLDY    64  54  69 E7        30.12R
6HR MIN TEMP:  64; 6HR MAX TEMP:  71;

FREEPORT*      CLEAR     63  55  75 E3        30.12S
ROCHELLE*      CLEAR     64  53  65 E7        30.10S
DE KALB*       CLEAR     60  53  78 E8        30.11S
PERU*          CLEAR     66  52  59 E5        30.09R
$$

ILZ005-006-012>014-019>023-190100-
NORTHEAST ILLINOIS

CITY           SKY/WX    TMP DP  RH WIND       PRES   REMARKS
CHICAGO-OHARE  PTCLDY    62  54  74 NE12      30.12S
6HR MIN TEMP:  62; 6HR MAX TEMP:  70;

CHICAGO-MIDWAY PTCLDY    63  55  75 NE10      30.11S
6HR MIN TEMP:  63; 6HR MAX TEMP:  72;

AURORA         CLEAR     63  53  70 E9        30.11R
6HR MIN TEMP:  63; 6HR MAX TEMP:  72;

LANSING*       CLEAR     61  56  83 NE7       30.12R
JOLIET*        CLEAR     63  52  67 NE7       30.11S
WAUKEGAN       CLOUDY    56  52  86 N3        30.13S
6HR MIN TEMP:  56; 6HR MAX TEMP:  62;

DUPAGE AIRPORT CLEAR     61  54  77 NE10      30.11S
6HR MIN TEMP:  61; 6HR MAX TEMP:  72;

KANKAKEE*      CLEAR     62  54  76 NE6       30.10R
WHEELING       CLEAR     59  54  83 N8        30.14F
6HR MIN TEMP:  59; 6HR MAX TEMP:  68;

MORRIS*        CLEAR     63  55  73 CALM      30.09S
ROMEOVILLE*    CLEAR     61  53  73 E10       30.11R
NORTHERLY ISL    N/A     60  55  83 N8          N/A
$$

LMZ740>746-190100-
SOUTHERN LAKE MICHIGAN

STATION/POSITION SKY/WX   TEMP    WIND        PRES    VSBY  WAVE
                          AIR SEA DIR/SP/G                  HT/PER
                          (F)     (DEG/KT/KT) (MB)    (MI)  (FT/S)
SOUTHERN BUOY              61 65   10/  8/ 10 1020.3R         2/ 6
WAUKEGAN HARBOR            58     360/  8/ 10   N/A
HARRISON CRIB              60     350/ 11/ 13   N/A
BURNHAM HARBOR             59     360/  8/ 11   N/A
CALUMET HARBOR             60     350/  8/ 10 1018.7S
MICHIGAN CITY              63      10/ 11/ 13   N/A
MICHIGAN CITY 6N           63 65   30/  8/ 12   N/A           3/ 2
ST. JOSEPH                 64 66   30/ 12/ 14   N/A           2/ 2
$$

ILZ025>027-034>036-040-047-049-050-058-095>099-190100-
WEST-CENTRAL ILLINOIS

CITY           SKY/WX    TMP DP  RH WIND       PRES   REMARKS
QUINCY         CLEAR     70  52  52 E5        30.03S
GALESBURG*     CLEAR     68  53  58 E5        30.07R
MACOMB*        CLEAR     67  52  57 E5        30.07R
JACKSONVILLE*  CLEAR     68  53  58 E5        30.05R
PITTSFIELD*    CLEAR     68  55  62 CALM      30.05R
$$

ILZ028>032-037-038-041>044-048-051>054-059>061-190100-
CENTRAL ILLINOIS

CITY           SKY/WX    TMP DP  RH WIND       PRES   REMARKS
PONTIAC        CLEAR     64  52  63 E3        30.08R
DECATUR        CLEAR     63  49  60 NE7       30.05S
PEORIA         CLEAR     68  48  48 E5        30.06S
6HR MIN TEMP:  68; 6HR MAX TEMP:  76;

LACON*         CLEAR     65  51  60 E5        30.07R
LINCOLN*       CLEAR     65  49  56 NE3       30.03S
SPRINGFIELD    CLEAR     67  52  58 NE6       30.04S
6HR MIN TEMP:  67; 6HR MAX TEMP:  77;

TAYLORVILLE    CLEAR     68  50  52 E5        30.04R
$$

ILZ033-039-045-046-055>057-062-063-190100-
EAST-CENTRAL ILLINOIS

CITY           SKY/WX    TMP DP  RH WIND       PRES   REMARKS
CHAMPAIGN      CLEAR     63  48  58 NE6       30.07S
DANVILLE*      CLEAR     64  50  60 E3        30.05S HAZE
RANTOUL*       CLEAR     67  44  43 NE3       30.08S
MATTOON        CLEAR     63  50  62 E3        30.04S
PARIS*         CLEAR     60  54  78 CALM      30.06S
$$

ILZ079-100>102-190100-
SOUTHWEST ILLINOIS

CITY           SKY/WX    TMP DP  RH WIND       PRES   REMARKS
ALTON          CLEAR     68  52  56 E6        30.03R
BELLEVILLE     CLEAR     69  57  66 CALM      30.02R
CAHOKIA*       CLEAR     68  57  68 CALM      30.02R
SPARTA*        CLEAR     65  56  72 CALM      30.03S
$$

ILZ064>066-069>071-074>076-080>082-084>086-088>090-092>094-190100-
SOUTH-CENTRAL ILLINOIS

CITY           SKY/WX    TMP DP  RH WIND       PRES   REMARKS
CARBONDALE     CLEAR     67  56  67 NE5       30.02R
6HR MIN TEMP:  67; 6HR MAX TEMP:  75;

CAIRO*         PTCLDY    69  60  72 CALM      29.99S
EFFINGHAM*     CLEAR     64  56  74 CALM      30.04R
MARION         CLEAR     66  57  72 CALM      30.02R
MT. VERNON     CLEAR     64  54  68 CALM      30.04R
CENTRALIA*     CLEAR     67  55  65 CALM      30.03R
SALEM*         CLEAR     65  60  83 CALM      30.03S
METROPOLIS*    PTCLDY    69  60  72 CALM      30.00R
$$

ILZ067-068-072-073-078-083-087-091-190100-
SOUTHEAST ILLINOIS

CITY           SKY/WX    TMP DP  RH WIND       PRES   REMARKS
LAWRENCEVILLE  CLEAR     65  55  70 NE7       30.04R
FLORA*         CLEAR     69  54  58 NE3       30.04R
FAIRFIELD*     CLEAR    N/A N/A N/A CALM      30.03R
HARRISBURG*    CLEAR     68  54  60 NE5       30.03R
ROBINSON*      CLEAR     66  56  68 E6        30.05R
CARMI*         CLEAR     67  57  70 CALM      30.02R
$$

ABBREVIATIONS USED IN REMARKS
   TC - TEMPERATURE IN CELSIUS
  WCI - WIND CHILL INDEX
   HX - HEAT INDEX
  VSB - VISIBILITY
$$



USA.gov is the U.S. government's official web portal to all federal, state and local government web resources and services.